Location: *
(41.1200°N, 81.9000°W)
Time: 04:45:50
(UTC+00:00)

Daily predictions for brighter satellites

Satellite Brightness Start Highest point End
(mag) Time Altitude Azimuth Time Altitude Azimuth Time Altitude Azimuth
NOSS 3-2 (C) 4.5 00:38:42 10° NW 00:46:22 70° WSW 00:54:46 10° SSE
Cosmos 1862 Rocket 4.2 00:50:43 10° NNW 00:55:08 63° W 00:59:33 10° S
Cosmos 1470 Rocket 4.2 00:50:49 10° SSW 00:55:14 63° W 00:59:42 10° N
CZ-2C R/B 4.4 00:52:53 10° ESE 00:56:13 19° ENE 00:59:33 10° NNE
Cosmos 1354 Rocket 4.3 00:51:28 10° SSW 00:56:46 77° WNW 01:02:08 10° NNE
SPOT 3 Rocket 3.6 00:52:27 10° SSE 00:57:34 63° ENE 01:02:41 10° N
CZ-2C R/B 3.9 00:54:29 10° NNE 00:59:14 87° WNW 01:03:52 10° SSW
Falcon 9 debris 3.5 00:57:28 10° NW 01:00:52 53° NE 01:04:09 11° ESE
Cosmos 1315 Rocket 2.9 00:59:26 10° N 01:03:32 64° E 01:07:38 10° SSE
RESURS DK-1 2.3 00:59:35 10° SSW 01:03:44 80° ESE 01:07:55 10° NNE
FALCON 9 DEB 3.5 01:01:36 10° NW 01:05:01 55° NE 01:08:08 12° ESE
Cosmos 1869 Rocket 4.0 01:01:20 10° SSE 01:05:22 41° E 01:09:26 10° NNE
Cosmos 1812 3.5 01:11:18 10° NNW 01:15:06 54° W 01:18:52 10° S
OAO 2 Rocket 3.9 01:14:26 10° WSW 01:19:15 40° S 01:23:05 15° ESE
Unknown 3.1 01:22:02 10° NW 01:25:33 84° NE 01:27:54 19° SE
Hubble Space Telescope 2.8 01:23:46 10° SSW 01:25:56 14° S 01:27:31 12° SSE
Unknown 3.8 01:25:05 10° WNW 01:27:57 39° SW 01:29:58 16° SSE
OAO 3 Rocket 4.3 01:24:18 10° SW 01:28:14 25° SSE 01:30:25 18° ESE
Cosmos 2221 Rocket 4.1 01:24:51 10° N 01:29:00 39° ENE 01:32:00 17° SE
ADEOS Rocket 3.1 01:25:21 10° NNE 01:31:11 57° ESE 01:37:34 10° S
CZ-2C R/B 3.8 01:32:13 10° NE 01:36:18 22° E 01:37:59 19° ESE
CENTAUR R/B 3.9 01:28:26 10° NW 01:36:19 52° WSW 01:44:40 10° S
Cosmos 773 Rocket 3.9 01:34:04 10° NNW 01:39:14 71° ENE 01:43:08 17° SSE
USA 186 3.8 01:37:38 10° SW 01:39:26 19° W 01:41:19 10° NW
Resurs 1-3 3.5 01:37:27 12° SSE 01:41:33 85° E 01:45:58 10° NNW
H-2A R/B 2.1 01:38:10 10° S 01:43:18 80° WSW 01:48:19 10° NNW
MetOp-A 4.1 01:39:43 15° SSE 01:44:11 67° ENE 01:49:31 10° N
Meteor 1-18 Rocket 4.2 01:40:43 10° N 01:46:20 74° E 01:51:08 15° SSE
Unknown 4.3 01:46:40 10° NW 01:50:33 43° NNE 01:52:27 25° E
Okean 1 3.2 01:47:02 10° N 01:50:59 71° E 01:53:13 25° SSE
ASTEX 1 3.9 01:46:23 10° NNE 01:51:01 38° E 01:53:12 25° SE
BREEZE M DEB (TANK) 3.0 01:49:21 10° SSW 01:56:31 - ENE 01:50:06 19° SSW
Unknown 4.5 01:47:28 10° NW 01:51:24 40° NNE 01:53:26 24° E
Cosmos 1777 Rocket 4.0 01:46:19 10° SSW 01:51:34 86° WNW 01:56:53 10° NNE
Unknown 4.4 01:49:07 10° NW 01:53:04 41° NNE 01:55:01 25° E
Cosmos 1943 Rocket 4.4 01:49:00 10° NW 01:53:10 22° W 01:57:20 10° SSW
Okean 1-7 3.9 01:49:10 10° NNW 01:53:26 49° W 01:57:40 10° SSW
ARGOS 3.4 01:48:43 10° S 01:54:02 68° WSW 01:59:24 10° NNW
Unknown 4.4 01:52:22 10° NW 01:56:21 43° NNE 01:58:10 27° E
Unknown 4.3 01:54:02 10° NW 01:58:02 45° NNE 01:59:47 28° E
Unknown 4.3 01:55:07 10° NW 01:59:04 45° NNE 02:00:43 29° E
Unknown 4.3 01:55:42 10° NW 01:59:42 45° NNE 02:01:22 29° E
Cosmos 1745 Rocket 4.3 01:54:57 10° N 02:00:49 45° ENE 02:03:37 28° SE
Unknown 4.3 01:57:18 10° NW 02:01:19 46° NNE 02:02:55 30° E
Resurs 01 Rocket 1.7 01:59:48 19° S 02:02:58 73° WSW 02:07:23 10° NNW
Unknown 4.2 01:59:01 10° NW 02:03:03 48° NNE 02:04:34 32° E
Unknown 4.3 02:00:31 10° NW 02:04:32 46° NNE 02:06:01 31° E
Cosmos 1538 Rocket 4.0 02:01:37 10° NNW 02:06:49 82° WSW 02:09:47 26° SSE
USA 234 4.3 02:01:38 13° S 02:06:52 37° SW 02:12:53 10° WNW
Unknown 4.2 02:03:50 10° NW 02:07:52 48° NNE 02:09:12 34° E
Aureole 2 4.4 02:05:34 10° SSW 02:08:45 68° WNW 02:11:43 10° NNE
Unknown 4.1 02:05:30 10° NW 02:09:33 50° NNE 02:10:49 36° E
ATLAS 3B R/B 4.5 02:05:22 10° WNW 02:10:35 24° WSW 02:15:57 10° SSW
Unknown 4.0 02:07:19 10° NW 02:11:25 55° NNE 02:12:34 40° E
Abrixas rocket 1.9 02:08:22 10° WSW 02:11:26 87° NW 02:11:39 76° NE
SL-24 R/B 4.3 02:08:24 24° S 02:11:28 83° WSW 02:16:03 10° NNW
Cosmos 1680 Rocket 4.2 02:07:03 10° N 02:11:56 37° ENE 02:13:20 32° E
Unknown 4.0 02:08:48 10° NW 02:12:52 52° NNE 02:14:00 39° E
Unknown 3.4 02:09:38 10° NW 02:13:32 84° NE 02:14:19 56° ESE
Unknown 3.4 02:10:42 10° NW 02:14:26 68° SW 02:15:03 55° SSE
Unknown 4.0 02:10:30 10° NW 02:14:35 54° NE 02:15:38 41° E
Unknown 3.9 02:13:49 10° NW 02:17:55 57° NE 02:18:50 45° E
Unknown 3.9 02:15:27 10° NW 02:19:33 59° NE 02:20:23 47° E
GENESIS II 4.1 02:17:57 31° SSW 02:19:42 67° ESE 02:23:45 10° NE
Unknown 4.4 02:16:59 10° WNW 02:20:07 30° SW 02:20:30 30° SSW
Cosmos 1515 3.9 02:16:52 10° N 02:20:30 50° ENE 02:20:30 50° ENE
Unknown 3.8 02:17:07 10° NW 02:21:14 60° NE 02:22:01 49° E
Cosmos 2098 Rocket 4.2 02:18:20 10° NNE 02:22:08 31° ENE 02:22:08 31° ENE
DMSP B5D2-2 4.2 02:17:00 10° N 02:22:16 78° WNW 02:27:31 10° SSW
Unknown 3.8 02:18:46 10° NW 02:22:53 62° NE 02:23:35 52° E
Geosat 3.9 02:21:52 42° SE 02:23:37 80° ENE 02:28:40 10° NNW
Cosmos 1536 4.1 02:25:00 28° ENE 02:25:00 28° ENE 02:27:34 10° NNE
Unknown 3.7 02:20:26 10° NW 02:24:33 64° NE 02:25:12 55° E
Meteor 1-19 Rocket 4.3 02:19:00 10° NNW 02:24:41 77° W 02:28:01 26° S
Unknown 3.4 02:22:43 10° NW 02:26:33 69° SW 02:26:45 66° SSW
SJ 16-02 3.5 02:30:18 14° NE 02:30:18 14° NE 02:31:13 10° NE
Unknown 3.5 02:24:03 10° NW 02:28:12 78° NE 02:28:40 67° E
Unknown 3.5 02:25:39 10° NW 02:29:48 78° NE 02:30:12 69° E
Meteor 1-13 Rocket 4.2 02:25:33 10° N 02:31:09 64° ENE 02:32:43 46° SE
Unknown 3.5 02:27:09 10° NW 02:31:18 75° NE 02:31:40 69° E
Unknown 3.5 02:28:44 10° NW 02:32:54 75° NE 02:33:11 70° ENE
Okean 3 3.7 02:29:10 10° NNW 02:33:19 63° W 02:34:25 44° SSW
Cosmos 2082 Rocket 4.3 02:36:41 11° ENE 02:36:41 11° ENE 02:37:08 10° ENE
Meteor 1-5 Rocket 4.2 02:31:41 37° S 02:34:04 70° E 02:39:43 10° NNE
USA 245 3.5 02:34:04 65° SE 02:34:37 76° ENE 02:39:41 10° N
CZ-2C R/B 3.7 02:33:07 23° SSW 02:35:46 45° W 02:40:19 10° NNW
Unknown 3.5 02:32:04 10° NW 02:36:14 80° NE 02:36:24 77° ENE
SPOT 1/Viking Rocket 3.7 02:36:45 50° ESE 02:37:37 56° ENE 02:42:44 10° N
Unknown 3.5 02:33:42 10° NW 02:37:51 82° NE 02:37:56 81° ENE
Terra 3.0 02:38:49 29° ENE 02:38:49 29° ENE 02:42:45 10° N
ERS-1 Rocket 3.0 02:38:23 53° ESE 02:39:02 57° ENE 02:43:57 10° N
Unknown 3.5 02:35:23 10° NW 02:39:33 84° NE 02:39:34 84° NE
SPOT 5 3.3 02:41:14 39° ENE 02:41:14 39° ENE 02:44:56 10° N
Cosmos 44 3.4 02:36:37 10° NW 02:40:56 51° WSW 02:41:32 47° SSW
Unknown 3.5 02:37:04 10° NW 02:41:12 86° N 02:41:12 86° N
Cosmos 1833 Rocket 4.1 02:43:44 22° ENE 02:43:44 22° ENE 02:46:20 10° NE
Unknown 3.7 02:43:40 10° NW 02:47:32 75° WNW 02:47:32 75° WNW
Unknown 3.7 02:45:21 10° NW 02:49:08 72° W 02:49:08 72° W
IGS 5A 3.7 02:51:26 58° NNE 02:51:26 58° NNE 02:55:01 10° N
Unknown 3.8 02:47:01 10° NW 02:50:44 68° W 02:50:44 68° W
Cosmos 1733 Rocket 4.1 02:49:50 23° SW 02:52:01 41° WNW 02:56:08 10° N
Unknown 3.9 02:48:39 10° NW 02:52:19 65° W 02:52:19 65° W
Spot 2 Rocket 4.4 02:51:32 28° SSW 02:53:39 43° W 02:58:30 10° NNW
SL-08 ROCKET BODY 4.2 02:48:06 10° N 02:54:01 80° E 02:55:08 60° SSE
Unknown 3.9 02:50:22 10° NW 02:53:57 62° W 02:53:57 62° W
Cosmos 1697 Rocket 3.8 02:49:44 10° N 02:54:38 29° NE 02:55:13 28° ENE
Cosmos 1378 Rocket 3.5 02:50:26 10° N 02:54:36 79° NNE 02:54:36 79° NNE
Cosmos 1937 Rocket 4.1 02:58:04 43° ENE 02:58:04 43° ENE 03:02:05 10° NNE
COSMOS 2406 3.1 02:54:45 37° SSW 02:57:09 89° WNW 03:02:54 10° NNE
Unknown 4.1 02:53:41 10° NW 02:57:08 56° W 02:57:08 56° W
Cosmos 1674 Rocket 3.9 02:53:53 10° NNW 02:58:11 59° W 02:58:23 58° WSW
Starlink (trailer) 4.2 02:55:20 10° WNW 02:58:43 53° W 02:58:43 53° W
Cosmos 1656 4.0 02:54:16 10° NNW 02:59:48 50° ENE 03:00:10 49° ENE
Cosmos 883 Rocket 4.4 02:58:42 48° S 03:00:37 86° E 03:07:01 10° N
Unknown 4.3 02:57:02 10° WNW 03:00:21 51° W 03:00:21 51° W
Meteor 2-16 Rocket 4.4 02:55:20 10° N 03:01:26 64° E 03:02:04 60° ESE
Unknown 4.4 02:58:42 10° WNW 03:01:56 48° W 03:01:56 48° W
Aureole 3 Rocket 3.5 03:04:19 50° WNW 03:04:19 50° WNW 03:07:37 10° N
Cosmos 990 Rocket 3.9 03:05:33 74° ENE 03:05:33 74° ENE 03:10:27 10° NNE
GP-B 3.8 03:03:52 10° N 03:08:09 49° W 03:08:38 46° WSW
Cosmos 2112 Rocket 4.0 03:09:06 10° NNW 03:14:21 72° WSW 03:14:24 72° WSW
Cosmos 1980 Rocket 3.7 03:11:10 10° N 03:15:40 24° NE 03:15:55 24° ENE
Cosmos 1975 Rocket 4.1 03:12:02 10° N 03:15:01 38° NNE 03:15:01 38° NNE
Meteor 2-14 Rocket 4.5 03:10:29 10° NNW 03:16:35 73° W 03:17:40 59° SSW
CZ-2C R/B 3.5 03:11:46 10° N 03:16:45 45° WNW 03:19:30 25° SW
Cosmos 44 Rocket 3.5 03:12:44 10° NNW 03:16:48 64° NNW 03:16:48 64° NNW
Cosmos 2369 4.1 03:16:11 10° NNW 03:21:29 51° NE 03:21:29 51° NE
Cosmos 158 Rocket 4.2 03:18:31 10° NNW 03:23:18 68° NNE 03:23:18 68° NNE
Cosmos 2315 Rocket 4.1 03:25:42 60° SSW 03:26:54 77° W 03:33:17 10° N
Cosmos 1709 Rocket 3.9 03:21:13 10° NNW 03:27:20 73° W 03:28:00 66° SW
Milstar 3 4.4 03:12:39 10° W 03:30:54 46° SSW 03:33:08 43° S
Thor Agena Rocket 3.9 03:26:41 10° N 03:31:45 59° WNW 03:32:10 57° W
Cosmos 2074 Rocket 4.4 03:27:49 10° N 03:33:31 50° ENE 03:33:31 50° ENE
Cosmos 2184 Rocket 4.4 03:29:16 10° N 03:34:41 48° ENE 03:34:41 48° ENE
FALCON 9 R/B 4.0 03:28:29 10° WSW 03:46:26 45° SSW 03:46:26 45° SSW
MOS 1 Rocket 4.4 03:54:03 10° N 03:59:09 47° WNW 03:59:12 47° WNW
Cosmos 2322 Rocket 4.3 03:58:13 10° N 04:01:43 16° NE 04:02:05 16° NE
SJ 16-02 3.3 04:07:15 28° NW 04:07:15 28° NW 04:10:08 10° N
Terra 3.7 04:17:43 25° WNW 04:17:43 25° WNW 04:20:31 10° NW
Cosmos 2082 Rocket 2.9 04:18:30 49° N 04:18:30 49° N 04:22:46 10° NNE
Cosmos 2278 4.5 04:14:10 10° NNW 04:18:17 49° NW 04:18:17 49° NW
Cosmos 1833 Rocket 3.7 04:25:22 41° WNW 04:25:22 41° WNW 04:30:37 10° N
Mayak 1.2 04:23:55 10° N 04:25:20 20° N 04:25:20 20° N
SL-16 R/B 3.7 04:25:23 10° N 04:29:30 28° NE 04:29:30 28° NE
Cosmos 1697 Rocket 4.0 04:33:24 10° NW 04:36:56 33° WNW 04:36:56 33° WNW
USA 229 DEB 3.9 04:39:12 10° NW 04:45:39 72° NW 04:45:39 72° NW
USA 229 3.9 04:39:18 10° NW 04:45:44 72° NW 04:45:44 72° NW
NOSS 3-1 (A) 4.2 04:42:21 10° NNW 04:49:57 66° NE 04:50:16 65° ENE
Cosmos 2360 Rocket 4.1 04:50:18 10° N 04:54:21 21° NE 04:54:21 21° NE
Cosmos 1980 Rocket 3.6 04:54:31 10° NNW 04:57:40 32° NW 04:57:40 32° NW
CZ-4C R/B 3.5 05:43:08 36° NNE 05:43:08 36° NNE 05:46:49 10° NNE
Cosmos 2322 Rocket 3.6 05:40:50 10° NNW 05:43:51 33° NNW 05:43:51 33° NNW
Lacrosse 4 Rocket 4.3 05:57:01 10° N 05:58:13 15° NNE 05:58:13 15° NNE
USA 215 3.5 05:59:12 10° NE 06:05:13 63° NNW 06:05:13 63° NNW
SL-16 R/B 4.1 06:09:13 10° NW 06:11:21 22° NW 06:11:21 22° NW
CZ-2D R/B 4.1 06:12:30 10° NE 06:15:35 22° ENE 06:15:35 22° ENE
SeaSat 1 4.5 06:15:55 10° NE 06:17:58 22° ENE 06:17:58 22° ENE
SL-16 R/B 3.6 06:23:29 36° E 06:24:08 37° ENE 06:29:43 10° N
COSMOS 2428 3.9 06:19:56 10° N 06:25:10 35° ENE 06:25:12 35° ENE
Aureole 1 Rocket 4.4 06:25:45 10° NNW 06:32:49 68° NW 06:32:49 68° NW
USA 267 3.3 06:38:22 73° NE 06:38:32 73° NE 06:45:03 10° NW
Cosmos 2360 Rocket 3.7 06:33:21 10° NNW 06:36:04 29° NW 06:36:04 29° NW
Cosmos 2297 Rocket 4.3 06:43:08 16° E 06:43:08 16° E 06:46:16 10° ENE
Cosmos 2219 Rocket 2.9 06:42:57 10° NNW 06:47:50 49° NE 06:47:50 49° NE
NOSS 3-3 (C) 4.4 06:53:03 51° ENE 06:53:03 51° ENE 06:58:19 10° NE
NOSS 3-3 (A) 4.4 06:53:03 52° ENE 06:53:03 52° ENE 06:58:20 10° NE
CZ-3 Stage 3 4.2 06:56:17 38° SE 06:56:17 38° SE 07:17:30 10° E
H-2A R/B 3.9 07:03:15 28° N 07:03:15 28° N 07:05:22 10° N
Cosmos 2237 Rocket 3.9 07:01:40 10° N 07:06:38 30° NE 07:11:02 12° ESE
Meteor 1-21 Rocket 4.5 07:08:29 10° N 07:13:12 64° N 07:13:12 64° N
Cosmos 2333 Rocket 2.6 07:12:24 10° NNW 07:16:51 57° NNW 07:16:51 57° NNW
Cosmos 2219 3.5 07:24:08 62° E 07:24:08 62° E 07:29:31 10° NNE
Resurs 1-4 Rocket 2.3 07:25:01 10° N 07:29:32 63° NNW 07:29:32 63° NNW
ATLAS 2AS CENTAUR R/B 3.7 07:23:22 10° NNW 07:30:50 48° NE 07:37:40 10° ESE
CZ-4C R/B 4.4 07:28:18 12° NW 07:30:55 16° NNW 07:34:34 10° N
Cosmos 407 Rocket 4.0 07:32:36 10° NNW 07:36:28 50° NNW 07:36:28 50° NNW
Cosmos 1271 Rocket 4.3 07:37:48 10° N 07:40:25 33° NE 07:40:25 33° NE
Cosmos 1954 Rocket 4.5 07:37:34 10° NNW 07:42:48 58° ENE 07:44:13 43° ESE
Cosmos 1726 3.8 07:44:33 32° NNE 07:44:33 32° NNE 07:46:42 10° NNE
SL-08 R/B 3.5 07:43:47 70° ENE 07:43:48 70° ENE 07:48:45 10° N
Cosmos 2058 Rocket 3.9 07:45:40 46° NNW 07:45:40 46° NNW 07:48:57 10° N
Cosmos 1953 4.5 07:49:08 19° NNW 07:49:08 19° NNW 07:50:35 10° NNW
Cosmos 1605 Rocket 4.3 07:43:28 10° NNW 07:49:19 52° W 07:49:19 52° W
BREEZE-M DEB (TANK) 3.6 07:51:39 54° NE 07:51:39 54° NE 07:56:56 10° ENE
Cosmos 676 Rocket 4.1 07:45:34 10° NNW 07:50:55 74° ENE 07:51:50 59° SE
CZ-4B R/B 3.6 07:51:51 24° NE 07:51:51 24° NE 07:53:56 10° NNE
Cosmos 1140 Rocket 3.4 07:46:40 10° NNW 07:51:47 85° NNW 07:51:47 85° NNW
Genesis I 4.5 07:51:26 10° NNW 07:55:11 39° NE 07:56:10 33° E
Meteor 2-10 4.1 07:56:09 70° S 07:56:52 85° E 08:02:38 10° N
CZ-2D R/B 2.7 07:51:51 10° N 07:56:54 45° WNW 07:56:54 45° WNW
SeaSat 1 3.4 07:53:23 10° N 07:57:45 34° NW 07:57:45 34° NW
COSMOS 2455 3.1 07:52:04 10° NW 07:56:56 50° WNW 07:56:56 50° WNW
Cosmos 1703 4.4 07:54:50 10° N 07:57:25 40° N 07:57:25 40° N
Cosmos 1459 Rocket 4.0 07:56:54 10° N 08:03:07 76° E 08:05:47 36° SSE
NOSS 0 Rocket 3.8 08:01:25 10° NNW 08:07:32 66° WSW 08:08:37 56° SSW
SL-16 R/B 3.3 08:08:34 34° W 08:08:34 34° W 08:13:19 10° NNW
COSMOS 2428 4.0 08:04:17 10° NW 08:07:08 25° WNW 08:07:08 25° WNW
Cosmos 2227 Rocket 2.1 08:08:30 62° S 08:09:30 84° ESE 08:15:12 10° NNE
Cosmos 2056 Rocket 4.3 08:12:34 37° WNW 08:12:46 37° WNW 08:17:46 10° N
Cosmos 1076 Rocket 4.4 08:12:23 10° N 08:16:28 45° ENE 08:18:34 25° SE
Cosmos 1689 Rocket 3.8 08:16:52 33° ENE 08:16:52 33° ENE 08:19:26 10° N
deb Chang Zheng 4 4.2 08:14:33 10° N 08:18:10 42° NW 08:18:10 42° NW
ADEOS II 2.0 08:14:10 10° NNE 08:19:27 86° WNW 08:20:40 55° SSW
IRS-1C 4.4 08:19:41 10° N 08:24:50 50° WNW 08:25:39 46° W
Cosmos 2297 Rocket 2.2 08:24:57 51° SW 08:26:18 69° WNW 08:31:58 10° NNE
CZ-2C R/B 3.2 08:22:45 10° NNE 08:26:44 61° E 08:27:32 49° SSE
Spot 4 Rocket 3.9 08:22:56 10° N 08:28:07 79° WNW 08:29:30 50° SSW
Intercosmos 25 Rocket 4.1 08:27:54 33° SE 08:28:54 42° E 08:31:57 10° NNE
Cosmos 1356 3.8 08:30:13 57° ESE 08:30:22 58° E 08:33:47 10° NNE
Cosmos 2219 Rocket 3.9 08:27:46 10° NW 08:29:29 17° WNW 08:29:29 17° WNW
Cosmos 2061 Rocket 4.0 08:26:21 10° N 08:32:48 86° W 08:37:39 19° S
NOSS 3-4 (A) 4.0 08:29:20 10° NNW 08:36:26 76° NE 08:44:12 10° SE
NOSS 3-4 (C) 4.0 08:29:26 10° NNW 08:36:32 75° NE 08:44:17 10° SE
ARIANE 5 R/B 2.8 08:34:53 10° N 08:39:57 51° WNW 08:41:18 40° WSW
SL-08 R/B 4.5 08:41:50 10° N 08:48:16 83° W 08:54:40 10° S
Cosmos 2237 Rocket 2.6 08:45:30 10° NW 08:50:46 40° WSW 08:52:40 31° SSW
Cosmos 1980 4.2 08:46:21 10° NW 08:51:30 37° WSW 08:52:42 33° SW
Cosmos 1242 Rocket 2.3 08:49:12 10° NNW 08:52:38 61° W 08:52:47 60° WSW
Cosmos 2173 Rocket 4.4 08:48:52 10° NNW 08:54:40 42° W 08:57:25 28° SW
SL-16 R/B 2.2 08:51:16 10° NNW 08:56:58 85° ENE 09:02:38 10° SSE
Cosmos 1461 2.8 08:57:00 42° WSW 08:58:10 66° WNW 09:02:10 10° NNE
Cosmos 1812 Rocket 4.2 08:58:32 33° W 08:59:18 36° WNW 09:03:22 10° N
IDEFIX/ARIANE 42P 3.2 09:00:26 10° NNE 09:05:33 54° E 09:10:39 10° S
CZ-2D R/B 4.4 09:03:55 10° N 09:07:55 35° WNW 09:09:15 28° WSW
Resurs 1-4 Rocket 4.2 09:08:33 10° NW 09:09:11 10° WNW 09:09:50 10° WNW
Cosmos 1110 Rocket 4.0 09:06:51 20° SSW 09:10:31 90° ESE 09:15:50 10° NNE
Cosmos 2082 4.1 09:07:38 26° WSW 09:10:37 49° WNW 09:16:12 10° NNE
Cosmos 1331 Rocket 4.1 09:06:38 18° SSW 09:10:40 81° ESE 09:16:00 10° NNE
CZ-3 R/B 4.5 08:57:39 14° SSW 09:12:39 26° S 09:20:35 10° ESE
Cosmos 1300 3.4 09:16:37 28° WSW 09:17:46 35° WNW 09:21:18 10° N
Cosmos 1455 3.6 09:14:37 10° SSE 09:18:05 38° E 09:21:35 10° NNE
ATLAS 2AS CENTAUR R/B 3.2 09:14:47 10° NW 09:21:39 40° WSW 09:27:59 10° S
CZ-4B R/B 3.7 09:25:10 10° WNW 09:25:10 10° WNW 09:25:12 10° WNW
IRIS 3.9 09:23:08 29° W 09:24:19 88° N 09:27:49 10° E
In-Cosmos 22 Rocket 4.2 09:21:53 10° NNW 09:27:37 74° W 09:33:10 10° S
Meteor 1-28 Rocket 3.7 09:27:12 16° SSW 09:29:46 36° W 09:33:13 10° NNW
Cosmos 1238 Rocket 3.3 09:29:46 10° N 09:32:37 44° E 09:35:35 10° SSE
Cosmos 2263 Rocket 3.3 09:29:04 10° S 09:34:25 45° ESE 09:39:48 10° NE
Cosmos 2233 Rocket 4.0 09:28:49 10° NNW 09:34:52 60° W 09:40:52 10° S
Cosmos-2242 3.6 09:35:44 15° SW 09:38:48 38° WNW 09:42:49 10° N
Cosmos 1825 4.0 09:37:29 10° N 09:41:01 35° ENE 09:44:32 10° SE
Cosmos 2058 3.8 09:37:52 10° NNW 09:41:22 28° W 09:44:44 11° SSW
Cosmos 1408 Rocket 3.6 09:46:19 10° NNW 09:50:47 68° W 09:55:11 10° S
Cosmos 2227 4.2 09:46:54 10° SSW 09:52:32 87° WNW 09:58:11 10° NNE
Cosmos 371 Rocket 3.3 09:48:32 10° SSW 09:53:23 73° WNW 09:58:17 10° NNE
Cosmos 2227 Rocket 4.0 09:50:50 10° W 09:54:18 16° NW 09:57:48 10° N
Cosmos 1743 Rocket 4.0 09:52:21 10° N 09:56:48 70° E 10:01:14 10° SSE
ADEOS II 4.1 09:56:33 10° NW 09:58:19 12° WNW 10:00:06 10° WNW
H-2A R/B 3.1 09:55:07 10° N 09:59:07 38° WNW 10:02:58 10° SW
Cosmos 1892 3.2 09:56:41 10° NNW 10:00:16 39° W 10:03:51 10° SSW
Meteor 1-31 Rocket 3.1 09:57:14 10° NNE 10:01:10 73° ESE 10:05:04 10° S
Okean O Rocket 4.0 10:04:17 10° NE 10:07:59 26° E 10:11:39 10° SSE
Cosmos 2297 Rocket 4.2 10:09:17 10° WNW 10:11:27 12° NW 10:13:36 10° NNW
PSLV R/B 4.4 10:08:55 10° NNE 10:12:57 64° E 10:17:01 10° S
Cosmos 921 Rocket 4.3 10:09:32 10° S 10:13:30 42° E 10:17:34 10° NNE
